| time (UTC) | temp F | wind direction | speed MPH | gust MPH | rain 1hr in | rain 24hr in | rain mn in | humidity % | barometer mb |
| 20260507024005 | 59 | 218 | 7.0 | 14.0 | 0.00 | 0.00 | 0.00 | 65 | 1015.6 |
| 20260507022005 | 59 | 288 | 5.0 | 8.0 | 0.00 | 0.00 | 0.00 | 66 | 1015.6 |
| 20260507020005 | 60 | 261 | 6.0 | 8.0 | 0.00 | 0.00 | 0.00 | 67 | 1015.6 |
| 20260507014004 | 60 | 177 | 5.0 | 7.0 | 0.00 | 0.00 | 0.00 | 69 | 1015.2 |
| 20260507013005 | 60 | 81 | 3.0 | 5.0 | 0.00 | 0.00 | 0.00 | 68 | 1015.6 |
| 20260507012005 | 60 | 275 | 2.0 | 5.0 | 0.00 | 0.00 | 0.00 | 68 | 1015.6 |
| 20260507011004 | 60 | 220 | 2.0 | 8.0 | 0.00 | 0.00 | 0.00 | 68 | 1015.2 |
| 20260507003004 | 61 | 13 | 3.0 | 7.0 | 0.00 | 0.00 | 0.00 | 67 | 1014.9 |
| 20260507002004 | 61 | 335 | 5.0 | 15.0 | 0.00 | 0.00 | 0.00 | 67 | 1014.9 |
| 20260507000005 | 62 | 32 | 5.0 | 9.0 | 0.00 | 0.00 | 0.00 | 67 | 1014.6 |
| 20260506233005 | 62 | 264 | 3.0 | 6.0 | 0.00 | 0.00 | 0.00 | 71 | 1014.6 |
| 20260506232004 | 62 | 258 | 6.0 | 12.0 | 0.00 | 0.00 | 0.00 | 71 | 1014.2 |
| 20260506231004 | 62 | 259 | 6.0 | 14.0 | 0.00 | 0.00 | 0.00 | 71 | 1014.6 |
| 20260506224005 | 64 | 321 | 3.0 | 8.0 | 0.00 | 0.00 | 0.00 | 64 | 1013.9 |
| 20260506223005 | 64 | 267 | 4.0 | 9.0 | 0.00 | 0.00 | 0.00 | 64 | 1013.5 |
| 20260506222005 | 64 | 24 | 3.0 | 8.0 | 0.00 | 0.00 | 0.00 | 63 | 1013.2 |
| 20260506221005 | 64 | 242 | 3.0 | 5.0 | 0.00 | 0.00 | 0.00 | 62 | 1012.9 |
| 20260506215006 | 65 | 82 | 0.0 | 3.0 | 0.00 | 0.00 | 0.00 | 63 | 1012.5 |
| 20260506212005 | 65 | 192 | 2.0 | 7.0 | 0.00 | 0.00 | 0.00 | 61 | 1012.2 |
| 20260506211005 | 66 | 225 | 5.0 | 8.0 | 0.00 | 0.00 | 0.00 | 61 | 1011.9 |
| 20260506210005 | 66 | 185 | 6.0 | 8.0 | 0.00 | 0.00 | 0.00 | 61 | 1011.5 |
| 20260506205005 | 66 | 176 | 5.0 | 10.0 | 0.00 | 0.00 | 0.00 | 60 | 1011.9 |
| 20260506204005 | 67 | 184 | 7.0 | 15.0 | 0.00 | 0.00 | 0.00 | 60 | 1011.9 |
| 20260506201005 | 67 | 107 | 5.0 | 14.0 | 0.00 | 0.00 | 0.00 | 59 | 1011.2 |
| 20260506200005 | 67 | 117 | 8.0 | 14.0 | 0.00 | 0.00 | 0.00 | 58 | 1011.5 |
| 20260506195005 | 68 | 158 | 3.0 | 8.0 | 0.00 | 0.00 | 0.00 | 58 | 1011.2 |
| 20260506194004 | 68 | 354 | 7.0 | 10.0 | 0.00 | 0.00 | 0.00 | 57 | 1011.2 |
| 20260506193005 | 68 | 203 | 6.0 | 9.0 | 0.00 | 0.00 | 0.00 | 57 | 1011.2 |
| 20260506192005 | 68 | 90 | 2.0 | 10.0 | 0.00 | 0.00 | 0.00 | 57 | 1010.8 |
| 20260506190005 | 69 | 267 | 8.0 | 10.0 | 0.00 | 0.00 | 0.00 | 56 | 1010.8 |
| 20260506185005 | 69 | 172 | 3.0 | 9.0 | 0.00 | 0.00 | 0.00 | 55 | 1010.8 |
| 20260506184005 | 69 | 126 | 6.0 | 9.0 | 0.00 | 0.00 | 0.00 | 55 | 1010.5 |
| 20260506183005 | 70 | 209 | 5.0 | 10.0 | 0.00 | 0.00 | 0.00 | 54 | 1010.5 |
| 20260506182005 | 70 | 108 | 6.0 | 10.0 | 0.00 | 0.00 | 0.00 | 54 | 1010.5 |
| 20260506181005 | 71 | 258 | 3.0 | 8.0 | 0.00 | 0.00 | 0.00 | 53 | 1010.2 |
| 20260506180005 | 71 | 131 | 3.0 | 7.0 | 0.00 | 0.00 | 0.00 | 52 | 1010.5 |
| 20260506174005 | 72 | 130 | 3.0 | 15.0 | 0.00 | 0.00 | 0.00 | 52 | 1010.2 |
| 20260506173005 | 72 | 80 | 9.0 | 15.0 | 0.00 | 0.00 | 0.00 | 51 | 1010.2 |
| 20260506172005 | 73 | 74 | 8.0 | 15.0 | 0.00 | 0.00 | 0.00 | 51 | 1010.2 |
| 20260506171004 | 73 | 129 | 6.0 | 14.0 | 0.00 | 0.00 | 0.00 | 50 | 1010.2 |
| 20260506170004 | 73 | 98 | 6.0 | 9.0 | 0.00 | 0.00 | 0.00 | 50 | 1010.2 |
| 20260506165005 | 74 | 144 | 4.0 | 8.0 | 0.00 | 0.00 | 0.00 | 48 | 1010.2 |
| 20260506162005 | 74 | 64 | 10.0 | 16.0 | 0.00 | 0.00 | 0.00 | 47 | 1010.5 |
| 20260506160005 | 74 | 179 | 3.0 | 14.0 | 0.00 | 0.00 | 0.00 | 48 | 1010.5 |
| 20260506155005 | 75 | 222 | 3.0 | 14.0 | 0.00 | 0.00 | 0.00 | 47 | 1010.5 |
| 20260506154005 | 75 | 180 | 8.0 | 14.0 | 0.00 | 0.00 | 0.00 | 46 | 1010.5 |
| 20260506153005 | 76 | 226 | 9.0 | 17.0 | 0.00 | 0.00 | 0.00 | 45 | 1010.5 |
| 20260506152005 | 76 | 254 | 6.0 | 16.0 | 0.00 | 0.00 | 0.00 | 45 | 1010.5 |
| 20260506150005 | 76 | 235 | 8.0 | 12.0 | 0.00 | 0.00 | 0.00 | 44 | 1010.5 |
| 20260506145005 | 76 | 233 | 3.0 | 14.0 | 0.00 | 0.00 | 0.00 | 43 | 1010.5 |
| 20260506144004 | 76 | 198 | 8.0 | 13.0 | 0.00 | 0.00 | 0.00 | 42 | 1010.5 |
| 20260506143005 | 77 | 129 | 9.0 | 16.0 | 0.00 | 0.00 | 0.00 | 42 | 1010.8 |
| 20260506142005 | 77 | 101 | 13.0 | 16.0 | 0.00 | 0.00 | 0.00 | 42 | 1010.5 |
| 20260506141005 | 77 | 128 | 9.0 | 18.0 | 0.00 | 0.00 | 0.00 | 41 | 1010.8 |
| 20260506140005 | 77 | 126 | 10.0 | 18.0 | 0.00 | 0.00 | 0.00 | 41 | 1010.8 |
| 20260506135005 | 78 | 167 | 6.0 | 10.0 | 0.00 | 0.00 | 0.00 | 40 | 1011.2 |
| 20260506134005 | 78 | 146 | 7.0 | 12.0 | 0.00 | 0.00 | 0.00 | 40 | 1011.2 |
| 20260506132005 | 76 | 177 | 7.0 | 10.0 | 0.00 | 0.00 | 0.00 | 42 | 1011.5 |
| 20260506131004 | 75 | 163 | 2.0 | 13.0 | 0.00 | 0.00 | 0.00 | 42 | 1011.2 |
| 20260506125004 | 76 | 152 | 10.0 | 18.0 | 0.00 | 0.00 | 0.00 | 41 | 1011.9 |
| 20260506123005 | 75 | 157 | 8.0 | 12.0 | 0.00 | 0.00 | 0.00 | 41 | 1012.2 |
| 20260506122005 | 76 | 129 | 3.0 | 6.0 | 0.00 | 0.00 | 0.00 | 43 | 1012.2 |
| 20260506121004 | 75 | 111 | 1.0 | 6.0 | 0.00 | 0.00 | 0.00 | 44 | 1012.5 |
| 20260506120005 | 74 | 84 | 3.0 | 9.0 | 0.00 | 0.00 | 0.00 | 44 | 1012.5 |
| 20260506113004 | 74 | 90 | 10.0 | 14.0 | 0.00 | 0.00 | 0.00 | 45 | 1013.2 |
| 20260506112005 | 74 | 111 | 2.0 | 10.0 | 0.00 | 0.00 | 0.00 | 46 | 1012.9 |
| 20260506110005 | 74 | 121 | 5.0 | 14.0 | 0.00 | 0.00 | 0.00 | 46 | 1013.2 |
| 20260506105005 | 74 | 176 | 7.0 | 15.0 | 0.00 | 0.00 | 0.00 | 48 | 1013.2 |
| 20260506104004 | 74 | 65 | 8.0 | 15.0 | 0.00 | 0.00 | 0.00 | 47 | 1013.2 |
| 20260506103005 | 73 | 153 | 7.0 | 12.0 | 0.00 | 0.00 | 0.00 | 47 | 1013.5 |
| 20260506101004 | 74 | 20 | 5.0 | 10.0 | 0.00 | 0.00 | 0.00 | 50 | 1013.9 |
| 20260506100005 | 74 | 149 | 6.0 | 10.0 | 0.00 | 0.00 | 0.00 | 51 | 1014.2 |
| 20260506095005 | 73 | 107 | 5.0 | 15.0 | 0.00 | 0.00 | 0.00 | 49 | 1013.9 |
| 20260506094005 | 74 | 139 | 6.0 | 15.0 | 0.00 | 0.00 | 0.00 | 47 | 1014.2 |
| 20260506093005 | 73 | 135 | 7.0 | 12.0 | 0.00 | 0.00 | 0.00 | 47 | 1014.2 |
| 20260506091005 | 75 | 85 | 2.0 | 5.0 | 0.00 | 0.00 | 0.00 | 49 | 1014.2 |
| 20260506090005 | 76 | 58 | 3.0 | 7.0 | 0.00 | 0.00 | 0.00 | 47 | 1014.6 |
| 20260506085004 | 76 | 358 | 3.0 | 5.0 | 0.00 | 0.00 | 0.00 | 46 | 1014.2 |
| 20260506084004 | 77 | 34 | 3.0 | 5.0 | 0.00 | 0.00 | 0.00 | 44 | 1014.2 |
| 20260506083005 | 76 | 233 | 2.0 | 3.0 | 0.00 | 0.00 | 0.00 | 46 | 1014.2 |
| 20260506082004 | 74 | 124 | 1.0 | 5.0 | 0.00 | 0.00 | 0.00 | 48 | 1014.6 |
| 20260506081005 | 73 | 56 | 3.0 | 6.0 | 0.00 | 0.00 | 0.00 | 48 | 1014.6 |
| 20260506072005 | 74 | 94 | 1.0 | 2.0 | 0.00 | 0.00 | 0.00 | 48 | 1014.9 |
| 20260506062004 | 68 | 46 | 3.0 | 5.0 | 0.00 | 0.00 | 0.00 | 55 | 1015.2 |
| 20260506061005 | 67 | 256 | 1.0 | 2.0 | 0.00 | 0.00 | 0.00 | 57 | 1014.9 |
| 20260506051004 | 65 | 306 | 3.0 | 5.0 | 0.00 | 0.00 | 0.00 | 62 | 1014.9 |
| 20260506045005 | 63 | 70 | 0.0 | 3.0 | 0.00 | 0.00 | 0.00 | 66 | 1014.9 |
| 20260506042004 | 62 | 189 | 2.0 | 6.0 | 0.00 | 0.00 | 0.00 | 69 | 1014.8 |
| 20260506040005 | 61 | 61 | 2.0 | 3.0 | 0.00 | 0.00 | 0.00 | 70 | 1014.6 |
| 20260506035005 | 61 | 37 | 2.0 | 6.0 | 0.00 | 0.00 | 0.00 | 71 | 1014.2 |
| 20260506032004 | 62 | 233 | 2.0 | 3.0 | 0.00 | 0.00 | 0.00 | 71 | 1014.6 |
| 20260506031004 | 62 | 210 | 2.0 | 3.0 | 0.00 | 0.00 | 0.00 | 71 | 1014.6 |
| 20260506030004 | 62 | 10 | 3.0 | 3.0 | 0.00 | 0.00 | 0.00 | 71 | 1014.6 |